Location: Unspecified
(0.0000°N, 0.0000°E)
Time: 11:15:16
(UTC+00:00)

Oscar 15 - Pass Details

Date: 09 June 2023
Orbit: 780 x 795 km, 98.9° (Epoch: 21 September)

Event Time Altitude Azimuth Distance (km) Brightness Sun altitude
Rises 18:45:37 0° 171° (S) 3,262 11.4 -10.6°
Reaches altitude 10° 18:47:56 10° 173° (S) 2,332 10.7 -11.2°
Maximum altitude 18:53:03 73° 257° (WSW) 816 8.8 -12.4°
Drops below altitude 10° 18:58:10 10° 342° (NNW) 2,325 11.6 -13.5°
Sets 19:00:29 0° 344° (NNW) 3,252 12.4 -14.1°
